Data No, UTC Date,UTC Time,Latitude,Longitude,Course(deg),Temp(degC),Sal(psu)
765,2020/11/26,12:44,35-35.75N,139-47.13E,211,17.759,30.3438
766,2020/11/26,12:45,35-35.59N,139-47.08E,186,17.631,30.6374
767,2020/11/26,12:46,35-35.40N,139-47.13E,156,17.548,30.6456
768,2020/11/26,12:47,35-35.25N,139-47.28E,140,17.541,30.4829
769,2020/11/26,12:48,35-35.08N,139-47.46E,139,17.75,30.3485
770,2020/11/26,12:49,35-34.90N,139-47.66E,139,17.733,30.5965
771,2020/11/26,12:50,35-34.70N,139-47.87E,139,17.715,30.7618
772,2020/11/26,12:51,35-34.51N,139-48.12E,128,17.732,30.8585
773,2020/11/26,12:52,35-34.35N,139-48.39E,125,17.787,30.94
774,2020/11/26,12:53,35-34.18N,139-48.69E,126,17.679,31.0845
775,2020/11/26,12:54,35-34.00N,139-48.97E,126,17.66,31.0917
776,2020/11/26,12:55,35-33.81N,139-49.26E,129,17.525,31.0465
777,2020/11/26,12:56,35-33.62N,139-49.55E,129,17.486,31.0287
778,2020/11/26,12:57,35-33.44N,139-49.84E,128,17.386,30.971
779,2020/11/26,12:58,35-33.24N,139-50.14E,128,17.323,30.8918
780,2020/11/26,12:59,35-33.05N,139-50.43E,129,17.379,30.7802
781,2020/11/26,13:00,35-32.81N,139-50.67E,148,16.991,30.7464
782,2020/11/26,13:01,35-32.51N,139-50.78E,166,16.836,30.6422
783,2020/11/26,13:02,35-32.21N,139-50.86E,167,17.354,29.9321
784,2020/11/26,13:03,35-31.90N,139-50.94E,167,17.501,30.2716
785,2020/11/26,13:04,35-31.59N,139-50.99E,173,17.327,30.9214
786,2020/11/26,13:05,35-31.28N,139-51.00E,178,17.327,31.1187
787,2020/11/26,13:06,35-30.95N,139-51.01E,178,17.264,31.261
788,2020/11/26,13:07,35-30.64N,139-51.02E,177,17.28,31.4136
789,2020/11/26,13:08,35-30.33N,139-50.98E,188,17.224,31.4739
790,2020/11/26,13:09,35-30.01N,139-50.93E,188,17.358,31.6117
791,2020/11/26,13:10,35-29.69N,139-50.87E,188,17.354,31.912
792,2020/11/26,13:11,35-29.39N,139-50.77E,198,17.325,32.0789
793,2020/11/26,13:12,35-29.09N,139-50.63E,204,17.323,32.1278
794,2020/11/26,13:13,35-28.83N,139-50.42E,218,17.313,32.1347
795,2020/11/26,13:14,35-28.63N,139-50.12E,233,17.286,32.119
796,2020/11/26,13:15,35-28.45N,139-49.82E,233,17.34,32.1154
797,2020/11/26,13:16,35-28.25N,139-49.50E,231,17.347,32.1247
798,2020/11/26,13:17,35-28.05N,139-49.21E,228,17.372,32.1758
799,2020/11/26,13:18,35-27.84N,139-48.93E,227,17.381,32.1939
800,2020/11/26,13:19,35-27.61N,139-48.61E,229,17.418,32.2336
801,2020/11/26,13:20,35-27.42N,139-48.34E,229,17.516,32.2952
802,2020/11/26,13:21,35-27.20N,139-48.02E,230,17.558,32.3914
803,2020/11/26,13:22,35-27.00N,139-47.73E,230,17.555,32.4901
804,2020/11/26,13:23,35-26.81N,139-47.43E,231,17.563,32.5479
805,2020/11/26,13:24,35-26.58N,139-47.11E,231,17.551,32.5463
806,2020/11/26,13:25,35-26.38N,139-46.79E,233,17.547,32.5268
807,2020/11/26,13:26,35-26.22N,139-46.47E,238,17.532,32.5466
808,2020/11/26,13:27,35-26.07N,139-46.16E,239,17.52,32.5275
809,2020/11/26,13:28,35-25.91N,139-45.82E,239,17.496,32.5355
810,2020/11/26,13:29,35-25.74N,139-45.49E,239,17.5,32.564
811,2020/11/26,13:30,35-25.58N,139-45.15E,239,17.503,32.5508
812,2020/11/26,13:31,35-25.42N,139-44.81E,239,17.526,32.5852
813,2020/11/26,13:32,35-25.26N,139-44.48E,239,17.544,32.5767
814,2020/11/26,13:33,35-25.10N,139-44.15E,239,17.527,32.5929
815,2020/11/26,13:34,35-24.93N,139-43.81E,237,17.518,32.6161
816,2020/11/26,13:35,35-24.76N,139-43.49E,237,17.525,32.5869
817,2020/11/26,13:36,35-24.58N,139-43.17E,233,17.432,32.6039
818,2020/11/26,13:37,35-24.34N,139-42.95E,209,17.338,32.568
819,2020/11/26,13:38,35-24.07N,139-42.79E,204,17.414,32.2816
820,2020/11/26,13:39,35-23.78N,139-42.63E,204,17.441,32.0237
821,2020/11/26,13:40,35-23.50N,139-42.47E,204,17.441,32.1082
822,2020/11/26,13:41,35-23.20N,139-42.31E,204,17.451,32.1448
823,2020/11/26,13:42,35-22.91N,139-42.17E,193,17.474,32.1858
824,2020/11/26,13:43,35-22.61N,139-42.19E,175,17.511,32.2566
825,2020/11/26,13:44,35-22.30N,139-42.22E,174,17.595,32.3745
826,2020/11/26,13:45,35-21.99N,139-42.26E,174,17.598,32.5367
827,2020/11/26,13:46,35-21.68N,139-42.30E,174,17.604,32.6105
828,2020/11/26,13:47,35-21.38N,139-42.33E,175,17.639,32.6271
829,2020/11/26,13:48,35-21.12N,139-42.36E,173,17.644,32.6379
830,2020/11/26,13:49,35-20.88N,139-42.37E,177,17.643,32.6568
831,2020/11/26,13:50,35-20.66N,139-42.39E,177,17.65,32.6827
832,2020/11/26,13:51,35-20.44N,139-42.39E,178,17.666,32.6691
833,2020/11/26,13:52,35-20.21N,139-42.42E,174,17.694,32.6828
834,2020/11/26,13:53,35-20.00N,139-42.45E,173,17.713,32.6779
835,2020/11/26,13:54,35-19.80N,139-42.47E,172,17.736,32.6971
836,2020/11/26,13:55,35-19.62N,139-42.55E,155,17.723,32.765
837,2020/11/26,13:56,35-19.47N,139-42.69E,143,17.723,32.8136
838,2020/11/26,13:57,35-19.31N,139-42.84E,143,17.755,32.7649
839,2020/11/26,13:58,35-19.14N,139-42.98E,146,17.826,32.736
840,2020/11/26,13:59,35-18.97N,139-43.12E,145,17.801,32.8001
841,2020/11/26,14:00,35-18.80N,139-43.27E,143,17.906,32.8413
842,2020/11/26,14:01,35-18.64N,139-43.42E,144,17.872,32.8691
843,2020/11/26,14:02,35-18.49N,139-43.55E,143,18.175,32.9491
844,2020/11/26,14:03,35-18.33N,139-43.70E,143,18.381,33.0572
845,2020/11/26,14:04,35-18.12N,139-43.86E,144,18.513,33.2748
846,2020/11/26,14:05,35-17.96N,139-44.01E,144,18.46,33.3661
847,2020/11/26,14:06,35-17.80N,139-44.15E,144,18.401,33.4362
848,2020/11/26,14:07,35-17.63N,139-44.30E,144,18.342,33.4221
849,2020/11/26,14:08,35-17.47N,139-44.44E,144,18.192,33.3939
850,2020/11/26,14:09,35-17.29N,139-44.60E,144,18.124,33.342
851,2020/11/26,14:10,35-17.11N,139-44.74E,145,18.112,33.2723
852,2020/11/26,14:11,35-16.94N,139-44.89E,146,18.213,33.24
853,2020/11/26,14:12,35-16.75N,139-45.05E,144,18.186,33.2897
854,2020/11/26,14:13,35-16.59N,139-45.19E,143,18.103,33.318
855,2020/11/26,14:14,35-16.38N,139-45.37E,145,18.274,33.2639
856,2020/11/26,14:15,35-16.21N,139-45.52E,144,18.29,33.2608
857,2020/11/26,14:16,35-16.03N,139-45.68E,144,18.006,33.3814
858,2020/11/26,14:17,35-15.86N,139-45.84E,144,18.038,33.3111
859,2020/11/26,14:18,35-15.68N,139-45.99E,145,18.058,33.2141
860,2020/11/26,14:19,35-15.50N,139-46.14E,145,18.026,33.2107
861,2020/11/26,14:20,35-15.33N,139-46.26E,155,17.974,33.2251
862,2020/11/26,14:21,35-15.11N,139-46.31E,173,18.004,33.1981
863,2020/11/26,14:22,35-14.89N,139-46.31E,180,17.987,33.2086
864,2020/11/26,14:23,35-14.67N,139-46.31E,179,17.951,33.2135
865,2020/11/26,14:24,35-14.44N,139-46.32E,179,17.925,33.1894
866,2020/11/26,14:25,35-14.22N,139-46.32E,180,17.898,33.1597
867,2020/11/26,14:26,35-14.00N,139-46.32E,179,17.951,33.1351
868,2020/11/26,14:27,35-13.77N,139-46.32E,179,18.027,33.1498
869,2020/11/26,14:28,35-13.55N,139-46.32E,179,18.119,33.1645
870,2020/11/26,14:29,35-13.33N,139-46.33E,179,18.165,33.2366
871,2020/11/26,14:30,35-13.11N,139-46.33E,179,18.255,33.2545
872,2020/11/26,14:31,35-12.90N,139-46.31E,184,18.396,33.2977
873,2020/11/26,14:32,35-12.68N,139-46.25E,198,18.316,33.3514
874,2020/11/26,14:33,35-12.47N,139-46.16E,198,18.308,33.3745
875,2020/11/26,14:34,35-12.22N,139-46.06E,198,18.216,33.4306
876,2020/11/26,14:35,35-11.96N,139-45.95E,199,18.47,33.374
877,2020/11/26,14:36,35-11.68N,139-45.84E,199,18.539,33.3866
878,2020/11/26,14:37,35-11.39N,139-45.71E,199,18.772,33.4948
879,2020/11/26,14:38,35-11.11N,139-45.59E,199,18.994,33.5804
880,2020/11/26,14:39,35-10.82N,139-45.47E,199,19.521,33.6693
881,2020/11/26,14:40,35-10.54N,139-45.37E,194,19.959,33.9037
882,2020/11/26,14:41,35-10.25N,139-45.28E,195,20.346,34.0715
883,2020/11/26,14:42,35-09.95N,139-45.18E,196,20.514,34.2497
884,2020/11/26,14:43,35-09.67N,139-45.08E,195,20.588,34.3062
885,2020/11/26,14:44,35-09.37N,139-44.97E,198,20.648,34.3891
886,2020/11/26,14:45,35-09.08N,139-44.84E,201,20.704,34.4304
887,2020/11/26,14:46,35-08.78N,139-44.69E,201,20.744,34.4395
888,2020/11/26,14:47,35-08.48N,139-44.55E,201,20.747,34.4506
889,2020/11/26,14:48,35-08.18N,139-44.40E,201,20.749,34.4657
890,2020/11/26,14:49,35-07.87N,139-44.26E,201,20.74,34.4599
891,2020/11/26,14:50,35-07.57N,139-44.11E,201,20.724,34.4658
892,2020/11/26,14:51,35-07.26N,139-43.94E,206,20.729,34.483
893,2020/11/26,14:52,35-06.98N,139-43.76E,206,20.779,34.4751
894,2020/11/26,14:53,35-06.69N,139-43.59E,206,20.845,34.4646
895,2020/11/26,14:54,35-06.39N,139-43.41E,206,20.832,34.5006
896,2020/11/26,14:55,35-06.10N,139-43.22E,211,20.727,34.5014
897,2020/11/26,14:56,35-05.83N,139-42.99E,213,20.643,34.5022
898,2020/11/26,14:57,35-05.55N,139-42.76E,216,20.559,34.4822
899,2020/11/26,14:58,35-05.30N,139-42.51E,220,20.559,34.4712
900,2020/11/26,14:59,35-05.05N,139-42.25E,219,20.542,34.4795
901,2020/11/26,15:00,35-04.80N,139-42.00E,219,20.514,34.4646
902,2020/11/26,15:01,35-04.54N,139-41.75E,218,20.968,34.4559
903,2020/11/26,15:02,35-04.29N,139-41.49E,220,21.148,34.4536
904,2020/11/26,15:03,35-04.05N,139-41.25E,219,21.23,34.4876
905,2020/11/26,15:04,35-03.76N,139-41.08E,200,21.296,34.5148
906,2020/11/26,15:05,35-03.47N,139-40.99E,190,21.372,34.5172
907,2020/11/26,15:06,35-03.16N,139-40.94E,185,21.422,34.515
908,2020/11/26,15:07,35-02.84N,139-40.93E,182,21.521,34.5239
909,2020/11/26,15:08,35-02.53N,139-40.92E,181,21.793,34.5421
910,2020/11/26,15:09,35-02.20N,139-40.91E,181,21.901,34.5378
911,2020/11/26,15:10,35-01.87N,139-40.90E,181,22.011,34.5774
912,2020/11/26,15:11,35-01.57N,139-40.89E,182,22.095,34.565
913,2020/11/26,15:12,35-01.24N,139-40.87E,182,22.031,34.5639
914,2020/11/26,15:13,35-00.90N,139-40.88E,176,21.977,34.567
915,2020/11/26,15:14,35-00.61N,139-40.93E,170,21.969,34.5712
916,2020/11/26,15:15,35-00.31N,139-41.02E,164,21.961,34.5635
917,2020/11/26,15:16,35-00.01N,139-41.14E,162,21.987,34.5558
918,2020/11/26,15:17,34-59.64N,139-41.28E,162,22.099,34.5598
919,2020/11/26,15:18,34-59.40N,139-41.37E,163,22.376,34.5765
920,2020/11/26,15:19,34-59.09N,139-41.48E,164,22.494,34.5606
921,2020/11/26,15:20,34-58.70N,139-41.65E,159,22.608,34.6227
922,2020/11/26,15:21,34-58.49N,139-41.75E,159,22.625,34.6047
923,2020/11/26,15:22,34-57.91N,139-42.01E,159,22.697,34.5623
924,2020/11/26,15:23,34-57.87N,139-42.03E,159,22.699,34.5967
925,2020/11/26,15:24,34-57.57N,139-42.18E,156,22.679,34.6099
926,2020/11/26,15:25,34-57.26N,139-42.34E,156,22.65,34.604
927,2020/11/26,15:26,34-56.96N,139-42.51E,156,22.542,34.6127
928,2020/11/26,15:27,34-56.65N,139-42.67E,157,22.44,34.5923
929,2020/11/26,15:28,34-56.34N,139-42.82E,158,22.248,34.5778
930,2020/11/26,15:29,34-56.03N,139-42.97E,158,22.23,34.5881
931,2020/11/26,15:30,34-55.72N,139-43.12E,157,22.268,34.5705
932,2020/11/26,15:31,34-55.41N,139-43.28E,157,22.346,34.5742
933,2020/11/26,15:32,34-55.10N,139-43.43E,158,22.369,34.5707
934,2020/11/26,15:33,34-54.80N,139-43.60E,155,22.411,34.5629
935,2020/11/26,15:34,34-54.48N,139-43.77E,155,22.454,34.5745
936,2020/11/26,15:35,34-54.12N,139-43.96E,155,22.467,34.5815
937,2020/11/26,15:36,34-53.80N,139-44.14E,155,22.5,34.5844
938,2020/11/26,15:37,34-53.48N,139-44.31E,155,22.523,34.5879
939,2020/11/26,15:38,34-53.17N,139-44.48E,156,22.557,34.583
940,2020/11/26,15:39,34-52.88N,139-44.63E,154,22.576,34.5893
941,2020/11/26,15:40,34-52.59N,139-44.82E,150,22.584,34.5873
942,2020/11/26,15:41,34-52.27N,139-45.10E,142,22.577,34.5868
943,2020/11/26,15:42,34-52.02N,139-45.40E,133,22.585,34.5895
944,2020/11/26,15:43,34-51.82N,139-45.75E,120,22.585,34.596
945,2020/11/26,15:44,34-51.70N,139-46.09E,113,22.576,34.5915
946,2020/11/26,15:45,34-51.56N,139-46.49E,112,22.553,34.6044
947,2020/11/26,15:46,34-51.43N,139-46.88E,112,22.531,34.6083
948,2020/11/26,15:47,34-51.30N,139-47.29E,111,22.501,34.5888
949,2020/11/26,15:48,34-51.16N,139-47.69E,112,22.413,34.6019
950,2020/11/26,15:49,34-51.02N,139-48.10E,112,22.229,34.5875
951,2020/11/26,15:50,34-50.88N,139-48.52E,112,22.047,34.5848
952,2020/11/26,15:51,34-50.75N,139-48.92E,111,21.806,34.5666
953,2020/11/26,15:52,34-50.63N,139-49.32E,109,21.677,34.5472
954,2020/11/26,15:53,34-50.52N,139-49.73E,107,21.757,34.5668
955,2020/11/26,15:54,34-50.39N,139-50.25E,107,21.737,34.566
956,2020/11/26,15:55,34-50.32N,139-50.52E,108,21.669,34.5479
957,2020/11/26,15:56,34-50.25N,139-50.91E,102,21.869,34.5351
958,2020/11/26,15:57,34-50.16N,139-51.33E,104,22.236,34.5733
959,2020/11/26,15:58,34-50.09N,139-51.68E,104,22.308,34.5763
960,2020/11/26,15:59,34-50.01N,139-52.06E,104,22.363,34.5962
961,2020/11/26,16:00,34-49.94N,139-52.44E,100,22.348,34.6044
962,2020/11/26,16:01,34-49.90N,139-52.83E,95,22.204,34.5841
963,2020/11/26,16:02,34-49.87N,139-53.21E,95,22.073,34.5991
964,2020/11/26,16:03,34-49.85N,139-53.60E,92,21.972,34.5869
965,2020/11/26,16:04,34-49.84N,139-53.98E,92,21.918,34.5704
966,2020/11/26,16:05,34-49.83N,139-54.35E,91,21.871,34.5434
967,2020/11/26,16:06,34-49.82N,139-54.74E,90,21.846,34.5715
968,2020/11/26,16:07,34-49.86N,139-55.09E,77,21.895,34.5559
969,2020/11/26,16:08,34-49.94N,139-55.44E,74,21.95,34.5353
970,2020/11/26,16:09,34-50.03N,139-55.78E,73,22.019,34.5533
971,2020/11/26,16:10,34-50.11N,139-56.13E,73,22.098,34.5553
972,2020/11/26,16:11,34-50.20N,139-56.48E,73,22.186,34.5742
973,2020/11/26,16:12,34-50.28N,139-56.82E,75,22.216,34.5755
974,2020/11/26,16:13,34-50.36N,139-57.18E,74,22.254,34.5738
975,2020/11/26,16:14,34-50.44N,139-57.52E,73,22.329,34.5796
976,2020/11/26,16:15,34-50.54N,139-57.86E,70,22.406,34.5803
977,2020/11/26,16:16,34-50.64N,139-58.21E,71,22.428,34.5773
978,2020/11/26,16:17,34-50.74N,139-58.55E,70,22.394,34.5912
979,2020/11/26,16:18,34-50.84N,139-58.89E,71,22.406,34.5858
980,2020/11/26,16:19,34-50.93N,139-59.23E,71,22.434,34.5892
981,2020/11/26,16:20,34-51.03N,139-59.57E,70,22.434,34.5977
982,2020/11/26,16:21,34-51.13N,139-59.93E,70,22.382,34.5898
983,2020/11/26,16:22,34-51.23N,140-00.26E,69,22.355,34.5846
984,2020/11/26,16:23,34-51.35N,140-00.60E,65,22.348,34.5871
985,2020/11/26,16:24,34-51.47N,140-00.92E,65,22.284,34.5787
986,2020/11/26,16:25,34-51.60N,140-01.25E,65,22.204,34.5885
987,2020/11/26,16:26,34-51.73N,140-01.58E,64,22.139,34.5848
988,2020/11/26,16:27,34-51.85N,140-01.90E,64,22.135,34.5916
989,2020/11/26,16:28,34-51.98N,140-02.23E,64,22.131,34.5791
990,2020/11/26,16:29,34-52.12N,140-02.56E,63,22.129,34.5719
991,2020/11/26,16:30,34-52.25N,140-02.89E,63,22.144,34.5727
992,2020/11/26,16:31,34-52.39N,140-03.23E,62,22.12,34.5869
993,2020/11/26,16:32,34-52.53N,140-03.55E,62,22.178,34.5734
994,2020/11/26,16:33,34-52.68N,140-03.89E,62,22.395,34.5859
995,2020/11/26,16:34,34-52.82N,140-04.21E,62,22.671,34.5926
996,2020/11/26,16:35,34-52.97N,140-04.55E,61,22.882,34.6154
997,2020/11/26,16:36,34-53.13N,140-04.90E,61,23.198,34.6226
998,2020/11/26,16:37,34-53.28N,140-05.23E,60,23.38,34.6358
999,2020/11/26,16:38,34-53.44N,140-05.57E,61,23.542,34.6495
1000,2020/11/26,16:39,34-53.60N,140-05.92E,61,23.614,34.6462
1001,2020/11/26,16:40,34-53.76N,140-06.27E,61,23.668,34.6524
1002,2020/11/26,16:41,34-53.92N,140-06.63E,61,23.699,34.676
1003,2020/11/26,16:42,34-54.07N,140-06.97E,60,23.72,34.6737
1004,2020/11/26,16:43,34-54.23N,140-07.32E,61,23.732,34.6666
1005,2020/11/26,16:44,34-54.39N,140-07.67E,61,23.746,34.6627
1006,2020/11/26,16:45,34-54.55N,140-08.02E,61,23.757,34.663
1007,2020/11/26,16:46,34-54.73N,140-08.43E,61,23.772,34.6729
1008,2020/11/26,16:47,34-54.88N,140-08.78E,62,23.777,34.6762
1009,2020/11/26,16:48,34-55.03N,140-09.11E,61,23.77,34.6742
1010,2020/11/26,16:49,34-55.17N,140-09.43E,62,23.771,34.6622
1011,2020/11/26,16:50,34-55.33N,140-09.78E,60,23.775,34.6562
1012,2020/11/26,16:51,34-55.49N,140-10.14E,61,23.778,34.6664
1013,2020/11/26,16:52,34-55.66N,140-10.53E,62,23.78,34.6729
1014,2020/11/26,16:53,34-55.80N,140-10.85E,62,23.785,34.6765
1015,2020/11/26,16:54,34-55.95N,140-11.20E,62,23.795,34.6486
1016,2020/11/26,16:55,34-56.10N,140-11.55E,62,23.809,34.6616
1017,2020/11/26,16:56,34-56.25N,140-11.90E,62,23.818,34.6775
1018,2020/11/26,16:57,34-56.41N,140-12.23E,58,23.835,34.675
1019,2020/11/26,16:58,34-56.58N,140-12.56E,57,23.84,34.6749
1020,2020/11/26,16:59,34-56.75N,140-12.89E,59,23.821,34.6716
1021,2020/11/26,17:00,34-56.91N,140-13.22E,59,23.834,34.6551
1022,2020/11/26,17:01,34-57.07N,140-13.56E,59,23.868,34.6838
1023,2020/11/26,17:02,34-57.23N,140-13.89E,59,23.886,34.6813
1024,2020/11/26,17:03,34-57.40N,140-14.22E,59,23.868,34.6856
1025,2020/11/26,17:04,34-57.56N,140-14.56E,59,23.828,34.6904
1026,2020/11/26,17:05,34-57.73N,140-14.90E,59,23.745,34.6875
1027,2020/11/26,17:06,34-57.89N,140-15.23E,59,23.658,34.6845
1028,2020/11/26,17:07,34-58.07N,140-15.59E,59,23.408,34.7002
1029,2020/11/26,17:08,34-58.23N,140-15.92E,60,23.23,34.6962
1030,2020/11/26,17:09,34-58.39N,140-16.25E,59,23.15,34.6561
1031,2020/11/26,17:10,34-58.54N,140-16.57E,59,23.016,34.6518
1032,2020/11/26,17:11,34-58.71N,140-16.92E,60,22.981,34.6334
1033,2020/11/26,17:12,34-58.85N,140-17.24E,61,22.962,34.6238
1034,2020/11/26,17:13,34-59.01N,140-17.57E,59,22.885,34.6215
1035,2020/11/26,17:14,34-59.17N,140-17.90E,58,22.754,34.6333
1036,2020/11/26,17:15,34-59.33N,140-18.21E,58,22.791,34.6264
1037,2020/11/26,17:16,34-59.50N,140-18.53E,56,22.803,34.6072
1038,2020/11/26,17:17,34-59.67N,140-18.84E,56,22.805,34.6185
1039,2020/11/26,17:18,34-59.84N,140-19.16E,57,22.687,34.6194
1040,2020/11/26,17:19,35-00.01N,140-19.47E,57,22.696,34.6297
1041,2020/11/26,17:20,35-00.18N,140-19.78E,56,22.772,34.6251
1042,2020/11/26,17:21,35-00.36N,140-20.09E,55,22.594,34.6189
1043,2020/11/26,17:22,35-00.52N,140-20.39E,56,22.572,34.6244
1044,2020/11/26,17:23,35-00.69N,140-20.69E,56,22.587,34.6211
1045,2020/11/26,17:24,35-00.86N,140-21.00E,56,22.607,34.62
1046,2020/11/26,17:25,35-01.03N,140-21.30E,56,22.638,34.6202
1047,2020/11/26,17:26,35-01.20N,140-21.62E,56,22.669,34.6407
1048,2020/11/26,17:27,35-01.36N,140-21.92E,57,22.725,34.6261
1049,2020/11/26,17:28,35-01.53N,140-22.23E,56,22.799,34.6255
1050,2020/11/26,17:29,35-01.70N,140-22.54E,56,22.823,34.6412
1051,2020/11/26,17:30,35-01.86N,140-22.84E,57,22.737,34.6537
1052,2020/11/26,17:31,35-02.04N,140-23.14E,54,22.642,34.6389
1053,2020/11/26,17:32,35-02.21N,140-23.43E,54,22.588,34.6459
1054,2020/11/26,17:33,35-02.38N,140-23.73E,55,22.609,34.6331
1055,2020/11/26,17:34,35-02.56N,140-24.04E,56,22.647,34.6328
1056,2020/11/26,17:35,35-02.69N,140-24.28E,54,22.659,34.6275
1057,2020/11/26,17:36,35-02.87N,140-24.58E,55,22.683,34.6281
1058,2020/11/26,17:37,35-03.04N,140-24.87E,55,22.681,34.6148
1059,2020/11/26,17:38,35-03.20N,140-25.17E,55,22.586,34.6333
1060,2020/11/26,17:39,35-03.37N,140-25.48E,57,22.431,34.6259
1061,2020/11/26,17:40,35-03.52N,140-25.78E,57,22.355,34.6219
1062,2020/11/26,17:41,35-03.69N,140-26.09E,58,22.27,34.6091
1063,2020/11/26,17:42,35-03.84N,140-26.38E,57,22.122,34.6067
1064,2020/11/26,17:43,35-04.00N,140-26.69E,57,22,34.6002
1065,2020/11/26,17:44,35-04.16N,140-27.00E,58,21.862,34.6077
1066,2020/11/26,17:45,35-04.33N,140-27.28E,53,21.813,34.6096
1067,2020/11/26,17:46,35-04.53N,140-27.55E,46,21.787,34.5881
1068,2020/11/26,17:47,35-04.74N,140-27.78E,41,21.81,34.5906
1069,2020/11/26,17:48,35-04.96N,140-27.98E,37,21.879,34.6098
1070,2020/11/26,17:49,35-05.19N,140-28.19E,37,21.953,34.5971
1071,2020/11/26,17:50,35-05.42N,140-28.39E,34,22.06,34.5857
1072,2020/11/26,17:51,35-05.65N,140-28.59E,35,22.113,34.6044
1073,2020/11/26,17:52,35-05.89N,140-28.79E,34,22.179,34.6205
1074,2020/11/26,17:53,35-06.12N,140-28.99E,34,22.248,34.6189
1075,2020/11/26,17:54,35-06.36N,140-29.18E,33,22.321,34.6072
1076,2020/11/26,17:55,35-06.60N,140-29.37E,33,22.366,34.6086
1077,2020/11/26,17:56,35-06.84N,140-29.56E,33,22.399,34.6356
1078,2020/11/26,17:57,35-07.09N,140-29.75E,33,22.443,34.6299
1079,2020/11/26,17:58,35-07.32N,140-29.94E,33,22.462,34.6046
1080,2020/11/26,17:59,35-07.57N,140-30.13E,33,22.472,34.6345
1081,2020/11/26,18:00,35-07.80N,140-30.32E,33,22.468,34.6172
1082,2020/11/26,18:01,35-08.05N,140-30.52E,35,22.507,34.6191
1083,2020/11/26,18:02,35-08.29N,140-30.72E,35,22.569,34.6214
1084,2020/11/26,18:03,35-08.55N,140-30.94E,35,22.623,34.6342
1085,2020/11/26,18:04,35-08.78N,140-31.15E,35,22.673,34.6393
1086,2020/11/26,18:05,35-09.01N,140-31.34E,35,22.704,34.6346
1087,2020/11/26,18:06,35-09.24N,140-31.55E,36,22.717,34.6256
1088,2020/11/26,18:07,35-09.48N,140-31.76E,37,22.758,34.6345
1089,2020/11/26,18:08,35-09.70N,140-31.97E,37,22.802,34.627
1090,2020/11/26,18:09,35-09.90N,140-32.15E,37,22.847,34.6345
1091,2020/11/26,18:10,35-10.12N,140-32.36E,37,22.875,34.6249
1092,2020/11/26,18:11,35-10.35N,140-32.57E,37,22.888,34.6276
1093,2020/11/26,18:12,35-10.57N,140-32.78E,38,22.905,34.6125
1094,2020/11/26,18:13,35-10.79N,140-32.99E,37,22.93,34.597
1095,2020/11/26,18:14,35-11.02N,140-33.20E,37,22.996,34.5877
1096,2020/11/26,18:15,35-11.24N,140-33.41E,38,23.038,34.587
1097,2020/11/26,18:16,35-11.47N,140-33.62E,38,23.109,34.5877
1098,2020/11/26,18:17,35-11.69N,140-33.84E,37,23.187,34.6065
1099,2020/11/26,18:18,35-11.92N,140-34.04E,36,23.246,34.6061
1100,2020/11/26,18:19,35-12.14N,140-34.25E,37,23.29,34.6136
1101,2020/11/26,18:20,35-12.37N,140-34.46E,35,23.337,34.6133
1102,2020/11/26,18:21,35-12.60N,140-34.66E,34,23.351,34.6198
1103,2020/11/26,18:22,35-12.84N,140-34.86E,35,23.36,34.6097
1104,2020/11/26,18:23,35-13.06N,140-35.06E,35,23.375,34.6218
1105,2020/11/26,18:24,35-13.30N,140-35.26E,34,23.408,34.6321
1106,2020/11/26,18:25,35-13.53N,140-35.45E,35,23.438,34.6317
1107,2020/11/26,18:26,35-13.76N,140-35.65E,34,23.446,34.6551
1108,2020/11/26,18:27,35-14.00N,140-35.85E,34,23.463,34.6446
1109,2020/11/26,18:28,35-14.22N,140-36.04E,34,23.484,34.6535
1110,2020/11/26,18:29,35-14.49N,140-36.26E,33,23.492,34.646
1111,2020/11/26,18:30,35-14.72N,140-36.46E,35,23.503,34.6531
1112,2020/11/26,18:31,35-14.96N,140-36.64E,31,23.521,34.6567
1113,2020/11/26,18:32,35-15.21N,140-36.82E,31,23.54,34.6764
1114,2020/11/26,18:33,35-15.45N,140-37.00E,31,23.558,34.6787
1115,2020/11/26,18:34,35-15.70N,140-37.19E,31,23.561,34.664
1116,2020/11/26,18:35,35-15.94N,140-37.37E,31,23.574,34.6871
1117,2020/11/26,18:36,35-16.18N,140-37.55E,30,23.592,34.685
1118,2020/11/26,18:37,35-16.44N,140-37.73E,30,23.601,34.6567
1119,2020/11/26,18:38,35-16.68N,140-37.91E,31,23.59,34.6701
1120,2020/11/26,18:39,35-16.89N,140-38.07E,31,23.578,34.6572
1121,2020/11/26,18:40,35-17.14N,140-38.25E,31,23.582,34.6487
1122,2020/11/26,18:41,35-17.38N,140-38.44E,32,23.589,34.6644
1123,2020/11/26,18:42,35-17.63N,140-38.63E,32,23.612,34.65
1124,2020/11/26,18:43,35-17.87N,140-38.82E,33,23.628,34.6394
1125,2020/11/26,18:44,35-18.12N,140-39.02E,33,23.649,34.6382
1126,2020/11/26,18:45,35-18.36N,140-39.21E,33,23.655,34.6342
1127,2020/11/26,18:46,35-18.63N,140-39.43E,33,23.661,34.6395
1128,2020/11/26,18:47,35-18.88N,140-39.64E,33,23.677,34.6364
1129,2020/11/26,18:48,35-19.12N,140-39.83E,34,23.695,34.6366
1130,2020/11/26,18:49,35-19.35N,140-40.05E,38,23.695,34.6383
1131,2020/11/26,18:50,35-19.58N,140-40.27E,37,23.705,34.6221
1132,2020/11/26,18:51,35-19.81N,140-40.48E,36,23.724,34.6378
1133,2020/11/26,18:52,35-20.05N,140-40.70E,36,23.742,34.6276
1134,2020/11/26,18:53,35-20.29N,140-40.91E,36,23.749,34.634
1135,2020/11/26,18:54,35-20.53N,140-41.13E,36,23.755,34.6351
1136,2020/11/26,18:55,35-20.76N,140-41.34E,35,23.744,34.6543
1137,2020/11/26,18:56,35-20.99N,140-41.56E,35,23.737,34.6601
1138,2020/11/26,18:57,35-21.23N,140-41.78E,36,23.725,34.6316
1139,2020/11/26,18:58,35-21.48N,140-41.99E,36,23.731,34.6428
1140,2020/11/26,18:59,35-21.72N,140-42.20E,35,23.728,34.6522
1141,2020/11/26,19:00,35-21.96N,140-42.42E,36,23.722,34.6341
1142,2020/11/26,19:01,35-22.21N,140-42.64E,36,23.708,34.6405
1143,2020/11/26,19:02,35-22.46N,140-42.87E,37,23.704,34.6457
1144,2020/11/26,19:03,35-22.70N,140-43.08E,36,23.698,34.6514
1145,2020/11/26,19:04,35-22.89N,140-43.27E,35,23.682,34.651
1146,2020/11/26,19:05,35-23.16N,140-43.52E,37,23.653,34.6438
1147,2020/11/26,19:06,35-23.41N,140-43.74E,36,23.626,34.6473
1148,2020/11/26,19:07,35-23.65N,140-43.97E,36,23.586,34.6477
1149,2020/11/26,19:08,35-23.85N,140-44.15E,36,23.536,34.6617
1150,2020/11/26,19:09,35-24.09N,140-44.37E,37,23.477,34.6539
1151,2020/11/26,19:10,35-24.33N,140-44.59E,36,23.452,34.6284